THY5212 LTAI-LTDB

Flight info

Callsign THY5212
Flight time 0h 36m
Altitude 27000
Route TEWHE UR55 MUT/N0454F260 W74 MANAZ
Aircraft B738/M-SDE2E3FGHIRWXY/LB1

Departure

Time 2026-04-17 04:42
Airport Antalya International Airport (LTAI)

Arrival

Time 2026-04-17 05:19
Airport Çukurova International Airport (LTDB)
Time Latitude Longitude Altitude Speed Heading
2026-04-17 04:27 36.89824 30.80009 181 ft 0 kts 88°
2026-04-17 04:32 36.89823 30.80003 181 ft 4 kts 89°
2026-04-17 04:33 36.89825 30.79970 181 ft 4 kts 99°
2026-04-17 04:33 36.89829 30.79937 181 ft 4 kts 96°
2026-04-17 04:33 36.89830 30.79903 181 ft 4 kts 93°
2026-04-17 04:33 36.89831 30.79885 181 ft 0 kts 94°
2026-04-17 04:36 36.89831 30.79889 181 ft 2 kts 97°
2026-04-17 04:36 36.89808 30.79915 181 ft 8 kts 156°
2026-04-17 04:36 36.89724 30.79913 181 ft 16 kts 186°
2026-04-17 04:36 36.89594 30.79911 181 ft 21 kts 177°
2026-04-17 04:37 36.89452 30.79895 180 ft 20 kts 187°
2026-04-17 04:37 36.89316 30.79877 180 ft 17 kts 186°
2026-04-17 04:37 36.89203 30.79884 180 ft 17 kts 134°
2026-04-17 04:37 36.89184 30.80023 179 ft 16 kts 96°
2026-04-17 04:38 36.89172 30.80158 179 ft 15 kts 96°
2026-04-17 04:38 36.89161 30.80289 179 ft 15 kts 96°
2026-04-17 04:38 36.89150 30.80414 178 ft 14 kts 96°
2026-04-17 04:38 36.89138 30.80533 178 ft 14 kts 97°
2026-04-17 04:39 36.89094 30.80622 178 ft 13 kts 171°
2026-04-17 04:39 36.89005 30.80610 177 ft 13 kts 187°
2026-04-17 04:39 36.88917 30.80596 177 ft 12 kts 187°
2026-04-17 04:39 36.88828 30.80584 177 ft 14 kts 186°
2026-04-17 04:40 36.88680 30.80563 176 ft 25 kts 186°
2026-04-17 04:40 36.88511 30.80541 175 ft 24 kts 186°
2026-04-17 04:40 36.88353 30.80519 174 ft 23 kts 186°
2026-04-17 04:40 36.88203 30.80498 173 ft 15 kts 186°
2026-04-17 04:41 36.88118 30.80543 172 ft 14 kts 108°
2026-04-17 04:41 36.88105 30.80664 170 ft 14 kts 96°
2026-04-17 04:41 36.88113 30.80723 170 ft 4 kts 28°
2026-04-17 04:41 36.88144 30.80727 171 ft 6 kts
2026-04-17 04:42 36.88313 30.80750 172 ft 55 kts
2026-04-17 04:42 36.88918 30.80833 178 ft 118 kts
2026-04-17 04:42 36.89913 30.80968 208 ft 166 kts
2026-04-17 04:42 36.91048 30.81123 850 ft 160 kts
2026-04-17 04:43 36.92171 30.81521 1403 ft 177 kts 25°
2026-04-17 04:43 36.93296 30.82156 2108 ft 181 kts 21°
2026-04-17 04:43 36.94567 30.82787 2521 ft 208 kts 21°
2026-04-17 04:43 36.95951 30.83467 3146 ft 217 kts 21°
2026-04-17 04:44 36.97333 30.84319 3762 ft 233 kts 42°
2026-04-17 04:44 36.98192 30.86116 4101 ft 256 kts 81°
2026-04-17 04:44 36.98142 30.88355 4935 ft 261 kts 95°
2026-04-17 04:44 36.97995 30.90572 5865 ft 259 kts 93°
2026-04-17 04:45 36.97913 30.92843 6705 ft 262 kts 92°
2026-04-17 04:45 36.97851 30.95140 7503 ft 267 kts 91°
2026-04-17 04:45 36.97802 30.97473 7896 ft 271 kts 91°
2026-04-17 04:45 36.97713 30.99825 7976 ft 270 kts 95°
2026-04-17 04:46 36.97512 31.02166 8002 ft 272 kts 96°
2026-04-17 04:46 36.97297 31.04527 8096 ft 275 kts 96°
2026-04-17 04:46 36.97085 31.06919 8810 ft 278 kts 96°
2026-04-17 04:46 36.96883 31.09327 9733 ft 278 kts 95°
2026-04-17 04:47 36.96823 31.11773 10404 ft 288 kts 91°
2026-04-17 04:47 36.96841 31.14382 10619 ft 314 kts 90°
2026-04-17 04:47 36.96871 31.17220 10808 ft 337 kts 90°
2026-04-17 04:47 36.96896 31.20250 10977 ft 359 kts 90°
2026-04-17 04:48 36.96910 31.23456 11206 ft 377 kts 90°
2026-04-17 04:48 36.96916 31.26769 11721 ft 384 kts 91°
2026-04-17 04:48 36.96918 31.30136 12345 ft 389 kts 91°
2026-04-17 04:48 36.96927 31.33530 12963 ft 391 kts 91°
2026-04-17 04:49 36.96933 31.36967 13542 ft 398 kts 91°
2026-04-17 04:49 36.96948 31.40419 14241 ft 399 kts 91°
2026-04-17 04:49 36.96950 31.43913 14821 ft 405 kts 91°
2026-04-17 04:49 36.96949 31.47446 15448 ft 408 kts 92°
2026-04-17 04:50 36.96956 31.50997 16058 ft 411 kts 91°
2026-04-17 04:50 36.96980 31.54592 16603 ft 416 kts 91°
2026-04-17 04:50 36.96984 31.58223 17145 ft 419 kts 95°
2026-04-17 04:50 36.96572 31.61826 17665 ft 420 kts 104°
2026-04-17 04:51 36.95898 31.65393 18193 ft 423 kts 105°
2026-04-17 04:51 36.95194 31.68984 18684 ft 426 kts 106°
2026-04-17 04:51 36.94494 31.72602 19134 ft 431 kts 105°
2026-04-17 04:51 36.93804 31.76268 19597 ft 435 kts 105°
2026-04-17 04:52 36.93118 31.79959 20081 ft 438 kts 106°
2026-04-17 04:52 36.92387 31.83664 20542 ft 442 kts 105°
2026-04-17 04:52 36.91751 31.87439 20961 ft 445 kts 104°
2026-04-17 04:52 36.91083 31.91223 21413 ft 448 kts 105°
2026-04-17 04:53 36.90387 31.95030 21817 ft 451 kts 104°
2026-04-17 04:53 36.89911 31.98922 22183 ft 457 kts 96°
2026-04-17 04:53 36.89796 32.02905 22574 ft 461 kts 93°
2026-04-17 04:55 36.89236 32.31585 24938 ft 479 kts 93°
2026-04-17 04:55 36.89125 32.35749 25293 ft 480 kts 93°
2026-04-17 04:55 36.89013 32.39928 25595 ft 483 kts 93°
2026-04-17 04:56 36.88900 32.44127 25889 ft 484 kts 93°
2026-04-17 04:56 36.88785 32.48327 26212 ft 485 kts 93°
2026-04-17 04:56 36.88669 32.52548 26617 ft 484 kts 93°
2026-04-17 04:56 36.88551 32.56755 26832 ft 486 kts 93°
2026-04-17 04:57 36.88432 32.60928 26834 ft 488 kts 93°
2026-04-17 04:57 36.88312 32.65155 26842 ft 486 kts 93°
2026-04-17 04:57 36.88191 32.69353 26835 ft 482 kts 93°
2026-04-17 04:57 36.88069 32.73533 26845 ft 482 kts 93°
2026-04-17 04:58 36.87945 32.77716 26837 ft 483 kts 93°
2026-04-17 04:58 36.87819 32.81922 26838 ft 484 kts 93°
2026-04-17 04:58 36.87691 32.86115 26846 ft 483 kts 93°
2026-04-17 04:58 36.87563 32.90310 26858 ft 484 kts 93°
2026-04-17 04:59 36.87432 32.94510 26849 ft 484 kts 93°
2026-04-17 04:59 36.87300 32.98718 26846 ft 485 kts 93°
2026-04-17 04:59 36.87166 33.02930 26847 ft 485 kts 93°
2026-04-17 04:59 36.87031 33.07131 26854 ft 485 kts 93°
2026-04-17 05:00 36.86895 33.11351 26854 ft 486 kts 93°
2026-04-17 05:00 36.86757 33.15566 26854 ft 486 kts 93°
2026-04-17 05:00 36.86617 33.19798 26848 ft 487 kts 93°
2026-04-17 05:00 36.86475 33.24045 26050 ft 495 kts 93°
2026-04-17 05:01 36.86380 33.26881 25514 ft 492 kts 93°
2026-04-17 05:01 36.86302 33.31152 24579 ft 492 kts 90°
2026-04-17 05:01 36.86443 33.35395 23903 ft 486 kts 87°
2026-04-17 05:01 36.86674 33.39581 23191 ft 481 kts 86°
2026-04-17 05:02 36.86914 33.43723 22491 ft 475 kts 89°
2026-04-17 05:02 36.86822 33.47818 21790 ft 469 kts 96°
2026-04-17 05:02 36.86523 33.51850 21112 ft 464 kts 97°
2026-04-17 05:02 36.86193 33.55823 20366 ft 455 kts 97°
2026-04-17 05:03 36.85868 33.59730 19472 ft 450 kts 97°
2026-04-17 05:03 36.85558 33.63601 18577 ft 446 kts 97°
2026-04-17 05:03 36.85267 33.67419 17816 ft 439 kts 96°
2026-04-17 05:03 36.84990 33.71174 17134 ft 430 kts 96°
2026-04-17 05:04 36.84724 33.74851 16480 ft 421 kts 96°
2026-04-17 05:04 36.84466 33.78457 15839 ft 413 kts 96°
2026-04-17 05:04 36.84212 33.81997 15202 ft 405 kts 96°
2026-04-17 05:04 36.83963 33.85467 14585 ft 401 kts 96°
2026-04-17 05:05 36.83712 33.88936 13962 ft 401 kts 97°
2026-04-17 05:05 36.83450 33.92394 13345 ft 401 kts 96°
2026-04-17 05:05 36.83196 33.95866 12724 ft 403 kts 96°
2026-04-17 05:05 36.82943 33.99356 12086 ft 403 kts 96°
2026-04-17 05:06 36.82691 34.02813 11456 ft 398 kts 96°
2026-04-17 05:06 36.82443 34.06175 11140 ft 386 kts 96°
2026-04-17 05:06 36.82200 34.09454 10966 ft 372 kts 96°
2026-04-17 05:06 36.81962 34.12650 10810 ft 359 kts 96°
2026-04-17 05:07 36.81736 34.15660 10649 ft 347 kts 96°
2026-04-17 05:07 36.81511 34.18651 10510 ft 336 kts 96°
2026-04-17 05:07 36.81295 34.21511 10360 ft 326 kts 96°
2026-04-17 05:07 36.81086 34.24250 10234 ft 316 kts 96°
2026-04-17 05:08 36.80881 34.26954 10218 ft 303 kts 96°
2026-04-17 05:08 36.80683 34.29529 10111 ft 294 kts 97°
2026-04-17 05:08 36.80495 34.32002 9998 ft 286 kts 97°
2026-04-17 05:08 36.80308 34.34456 9742 ft 283 kts 97°
2026-04-17 05:09 36.80119 34.36912 9465 ft 280 kts 96°
2026-04-17 05:09 36.79936 34.39290 9201 ft 278 kts 96°
2026-04-17 05:09 36.79750 34.41712 8922 ft 276 kts 96°
2026-04-17 05:09 36.79567 34.44064 8645 ft 275 kts 96°
2026-04-17 05:10 36.79381 34.46462 8372 ft 274 kts 96°
2026-04-17 05:10 36.79200 34.48791 8102 ft 273 kts 96°
2026-04-17 05:10 36.79017 34.51139 7830 ft 271 kts 96°
2026-04-17 05:10 36.78830 34.53516 7566 ft 274 kts 96°
2026-04-17 05:11 36.78637 34.55967 7315 ft 300 kts 96°
2026-04-17 05:11 36.78426 34.58624 6998 ft 319 kts 96°
2026-04-17 05:11 36.78208 34.61399 6663 ft 323 kts 96°
2026-04-17 05:11 36.77986 34.64194 6307 ft 324 kts 96°
2026-04-17 05:12 36.77767 34.66968 5966 ft 319 kts 96°
2026-04-17 05:12 36.77551 34.69702 5634 ft 314 kts 96°
2026-04-17 05:12 36.77339 34.72380 5498 ft 306 kts 96°
2026-04-17 05:12 36.77129 34.74996 5365 ft 298 kts 96°
2026-04-17 05:13 36.76926 34.77523 5247 ft 288 kts 96°
2026-04-17 05:13 36.76709 34.79960 5130 ft 278 kts 101°
2026-04-17 05:13 36.75982 34.82152 4851 ft 271 kts 121°
2026-04-17 05:13 36.74994 34.84098 4582 ft 261 kts 121°
2026-04-17 05:14 36.74055 34.85993 4320 ft 252 kts 120°
2026-04-17 05:14 36.73155 34.87819 4072 ft 243 kts 120°
2026-04-17 05:14 36.72299 34.89566 3829 ft 235 kts 118°
2026-04-17 05:14 36.71811 34.91438 3580 ft 224 kts 89°
2026-04-17 05:15 36.72145 34.93267 3372 ft 215 kts 62°
2026-04-17 05:15 36.73183 34.94514 3177 ft 204 kts 34°
2026-04-17 05:15 36.74333 34.95485 2944 ft 196 kts 39°
2026-04-17 05:15 36.75415 34.96475 2743 ft 190 kts 38°
2026-04-17 05:16 36.76484 34.97393 2575 ft 181 kts 35°
2026-04-17 05:16 36.77576 34.98261 2360 ft 190 kts 33°
2026-04-17 05:16 36.78695 34.99124 2110 ft 188 kts 33°
2026-04-17 05:16 36.79789 34.99959 1852 ft 180 kts 32°
2026-04-17 05:17 36.80825 35.00751 1638 ft 171 kts 32°
2026-04-17 05:17 36.81817 35.01511 1412 ft 162 kts 32°
2026-04-17 05:17 36.82738 35.02217 1242 ft 149 kts 31°
2026-04-17 05:17 36.83633 35.02901 1013 ft 150 kts 31°
2026-04-17 05:18 36.84513 35.03574 814 ft 147 kts 31°
2026-04-17 05:18 36.85384 35.04241 623 ft 147 kts 31°
2026-04-17 05:18 36.86260 35.04912 444 ft 147 kts 32°
2026-04-17 05:18 36.87138 35.05576 242 ft 147 kts 31°
2026-04-17 05:19 36.87994 35.06237 66 ft 142 kts 32°
2026-04-17 05:19 36.88753 35.06816 52 ft 108 kts 31°
2026-04-17 05:19 36.89215 35.07168 53 ft 28 kts 31°
2026-04-17 05:19 36.89297 35.07166 51 ft 11 kts 312°
2026-04-17 05:20 36.89339 35.07084 50 ft 11 kts 302°
2026-04-17 05:20 36.89379 35.07003 51 ft 11 kts 302°
2026-04-17 05:20 36.89419 35.06923 48 ft 12 kts 301°
2026-04-17 05:20 36.89472 35.06816 49 ft 17 kts 302°
2026-04-17 05:21 36.89544 35.06679 52 ft 16 kts 308°
2026-04-17 05:21 36.89619 35.06688 50 ft 10 kts 29°
2026-04-17 05:21 36.89680 35.06735 48 ft 10 kts 32°
2026-04-17 05:21 36.89740 35.06744 50 ft 10 kts 313°
2026-04-17 05:22 36.89769 35.06689 53 ft 2 kts 302°
2026-04-17 05:22 36.89775 35.06677 53 ft 0 kts 302°